Time,TemperatureF,DewpointF,PressureIn,WindDirection,WindDirectionDegrees,WindSpeedMPH,WindSpeedGustMPH,Humidity,HourlyPrecipIn,Conditions,Clouds,dailyrainin,SoftwareType,DateUTC
2017-09-21 00:01:00,59.7,53.2,29.92,East,90,0.0,-999.0,79,-99.99,,,0.00,,2017-09-21 05:01:00,
2017-09-21 00:17:00,59.4,53.2,29.91,NE,45,0.0,-999.0,80,-99.99,,,0.00,,2017-09-21 05:17:00,
2017-09-21 00:23:00,59.0,53.2,29.91,NNW,337,0.0,-999.0,81,-99.99,,,0.00,,2017-09-21 05:23:00,
2017-09-21 00:28:00,59.0,53.2,29.92,North,360,0.0,-999.0,81,-99.99,,,0.00,,2017-09-21 05:28:00,
2017-09-21 00:33:00,58.8,53.3,29.92,NW,315,0.0,-999.0,82,-99.99,,,0.00,,2017-09-21 05:33:00,
2017-09-21 00:40:00,58.8,53.3,29.92,NE,45,2.7,-999.0,82,-99.99,,,0.00,,2017-09-21 05:40:00,
2017-09-21 00:45:00,58.8,53.3,29.92,NNE,22,0.0,-999.0,82,-99.99,,,0.00,,2017-09-21 05:45:00,
2017-09-21 00:50:00,58.8,53.3,29.92,West,270,1.7,-999.0,82,-99.99,,,0.00,,2017-09-21 05:50:00,
2017-09-21 00:56:00,58.6,53.1,29.92,ENE,67,0.0,-999.0,82,-99.99,,,0.00,,2017-09-21 05:56:00,
2017-09-21 01:01:00,58.6,53.1,29.92,NW,315,0.0,-999.0,82,-99.99,,,0.00,,2017-09-21 06:01:00,
2017-09-21 01:06:00,58.5,53.0,29.93,NNE,22,0.0,-999.0,82,-99.99,,,0.00,,2017-09-21 06:06:00,
2017-09-21 01:12:00,58.3,53.2,29.93,North,360,1.1,-999.0,83,-99.99,,,0.00,,2017-09-21 06:12:00,
2017-09-21 01:17:00,58.1,53.0,29.93,NNE,22,0.0,-999.0,83,-99.99,,,0.00,,2017-09-21 06:17:00,
2017-09-21 01:23:00,58.1,53.0,29.93,North,360,0.0,-999.0,83,-99.99,,,0.00,,2017-09-21 06:23:00,
2017-09-21 01:28:00,58.1,53.0,29.93,North,360,2.2,-999.0,83,-99.99,,,0.00,,2017-09-21 06:28:00,
2017-09-21 01:33:00,58.3,53.2,29.93,NW,315,4.2,-999.0,83,-99.99,,,0.00,,2017-09-21 06:33:00,
2017-09-21 01:39:00,58.8,53.6,29.93,West,270,4.7,-999.0,83,-99.99,,,0.00,,2017-09-21 06:39:00,
2017-09-21 01:44:00,59.0,53.5,29.93,NNW,337,2.7,-999.0,82,-99.99,,,0.00,,2017-09-21 06:44:00,
2017-09-21 01:49:00,59.2,53.4,29.93,NNE,22,2.7,-999.0,81,-99.99,,,0.00,,2017-09-21 06:49:00,
2017-09-21 01:55:00,59.2,53.4,29.94,NNE,22,1.7,-999.0,81,-99.99,,,0.00,,2017-09-21 06:55:00,
2017-09-21 02:00:00,59.2,53.4,29.94,NW,315,1.7,-999.0,81,-99.99,,,0.00,,2017-09-21 07:00:00,
2017-09-21 02:06:00,59.2,53.4,29.93,NNE,22,3.7,-999.0,81,-99.99,,,0.00,,2017-09-21 07:06:00,
2017-09-21 02:11:00,59.0,53.2,29.93,NNE,22,2.2,-999.0,81,-99.99,,,0.00,,2017-09-21 07:11:00,
2017-09-21 02:16:00,59.0,53.2,29.92,NE,45,2.2,-999.0,81,-99.99,,,0.00,,2017-09-21 07:16:00,
2017-09-21 02:22:00,59.0,53.2,29.92,WNW,292,3.2,-999.0,81,-99.99,,,0.00,,2017-09-21 07:22:00,
2017-09-21 02:27:00,58.8,53.0,29.92,NE,45,2.7,-999.0,81,-99.99,,,0.00,,2017-09-21 07:27:00,
2017-09-21 02:33:00,58.3,52.5,29.92,WNW,292,3.7,-999.0,81,-99.99,,,0.00,,2017-09-21 07:33:00,
2017-09-21 02:38:00,58.1,52.3,29.92,NE,45,2.2,-999.0,81,-99.99,,,0.00,,2017-09-21 07:38:00,
2017-09-21 02:43:00,57.9,52.1,29.92,NNE,22,2.7,-999.0,81,-99.99,,,0.00,,2017-09-21 07:43:00,
2017-09-21 02:49:00,57.7,52.2,29.92,NNE,22,2.7,-999.0,82,-99.99,,,0.00,,2017-09-21 07:49:00,
2017-09-21 02:55:00,57.6,52.1,29.92,NW,315,2.2,-999.0,82,-99.99,,,0.00,,2017-09-21 07:55:00,
2017-09-21 03:00:00,57.4,52.3,29.92,NNW,337,3.2,-999.0,83,-99.99,,,0.00,,2017-09-21 08:00:00,
2017-09-21 03:06:00,57.2,52.1,29.92,NE,45,2.7,-999.0,83,-99.99,,,0.00,,2017-09-21 08:06:00,
2017-09-21 03:11:00,57.2,52.1,29.92,ENE,67,2.7,-999.0,83,-99.99,,,0.00,,2017-09-21 08:11:00,
2017-09-21 03:16:00,57.0,51.9,29.92,NE,45,1.7,-999.0,83,-99.99,,,0.00,,2017-09-21 08:16:00,
2017-09-21 03:22:00,56.8,51.7,29.92,NNW,337,3.2,-999.0,83,-99.99,,,0.00,,2017-09-21 08:22:00,
2017-09-21 03:27:00,56.8,51.7,29.92,East,90,2.2,-999.0,83,-99.99,,,0.00,,2017-09-21 08:27:00,
2017-09-21 03:33:00,56.8,51.7,29.92,East,90,1.7,-999.0,83,-99.99,,,0.00,,2017-09-21 08:33:00,
2017-09-21 03:38:00,56.8,51.7,29.92,NNE,22,2.2,-999.0,83,-99.99,,,0.00,,2017-09-21 08:38:00,
2017-09-21 03:40:00,56.8,51.7,29.93,ENE,67,1.7,-999.0,83,-99.99,,,0.00,,2017-09-21 08:40:00,
2017-09-21 03:45:00,56.8,51.7,29.93,NNE,22,1.7,-999.0,83,-99.99,,,0.00,,2017-09-21 08:45:00,
2017-09-21 03:51:00,56.8,51.7,29.92,NE,45,1.1,-999.0,83,-99.99,,,0.00,,2017-09-21 08:51:00,
2017-09-21 03:56:00,56.7,51.6,29.92,WNW,292,0.0,-999.0,83,-99.99,,,0.00,,2017-09-21 08:56:00,
2017-09-21 04:01:00,56.5,51.4,29.92,NNE,22,1.1,-999.0,83,-99.99,,,0.00,,2017-09-21 09:01:00,
2017-09-21 04:07:00,56.3,51.5,29.92,North,360,2.2,-999.0,84,-99.99,,,0.00,,2017-09-21 09:07:00,
2017-09-21 04:12:00,56.3,51.5,29.92,NNE,22,3.7,-999.0,84,-99.99,,,0.00,,2017-09-21 09:12:00,
2017-09-21 04:18:00,56.3,51.5,29.92,North,360,2.2,-999.0,84,-99.99,,,0.00,,2017-09-21 09:18:00,
2017-09-21 04:23:00,56.3,51.5,29.92,North,360,1.7,-999.0,84,-99.99,,,0.00,,2017-09-21 09:23:00,
2017-09-21 04:28:00,56.1,51.3,29.92,WNW,292,1.7,-999.0,84,-99.99,,,0.00,,2017-09-21 09:28:00,
2017-09-21 04:34:00,56.1,51.3,29.92,ENE,67,1.7,-999.0,84,-99.99,,,0.00,,2017-09-21 09:34:00,
2017-09-21 04:39:00,55.9,51.1,29.92,NNE,22,0.0,-999.0,84,-99.99,,,0.00,,2017-09-21 09:39:00,
2017-09-21 04:44:00,55.8,51.0,29.92,NNE,22,1.7,-999.0,84,-99.99,,,0.00,,2017-09-21 09:44:00,
2017-09-21 04:50:00,55.8,51.0,29.92,NNE,22,0.0,-999.0,84,-99.99,,,0.00,,2017-09-21 09:50:00,
2017-09-21 04:55:00,55.6,51.2,29.92,WSW,247,1.7,-999.0,85,-99.99,,,0.00,,2017-09-21 09:55:00,
2017-09-21 05:01:00,55.6,51.2,29.92,NNE,22,1.1,-999.0,85,-99.99,,,0.00,,2017-09-21 10:01:00,
2017-09-21 05:06:00,55.4,51.0,29.92,NE,45,1.7,-999.0,85,-99.99,,,0.00,,2017-09-21 10:06:00,
2017-09-21 05:12:00,55.4,51.0,29.92,NNE,22,2.2,-999.0,85,-99.99,,,0.00,,2017-09-21 10:12:00,
2017-09-21 05:17:00,55.4,51.0,29.93,East,90,2.7,-999.0,85,-99.99,,,0.00,,2017-09-21 10:17:00,
2017-09-21 05:22:00,55.4,51.0,29.93,NNW,337,1.7,-999.0,85,-99.99,,,0.00,,2017-09-21 10:22:00,
2017-09-21 05:28:00,55.4,51.0,29.93,NNE,22,1.7,-999.0,85,-99.99,,,0.00,,2017-09-21 10:28:00,
2017-09-21 05:33:00,55.4,51.0,29.93,NNE,22,1.7,-999.0,85,-99.99,,,0.00,,2017-09-21 10:33:00,
2017-09-21 05:39:00,55.6,51.2,29.93,ENE,67,1.7,-999.0,85,-99.99,,,0.00,,2017-09-21 10:39:00,
2017-09-21 05:44:00,55.6,50.8,29.93,North,360,0.0,-999.0,84,-99.99,,,0.00,,2017-09-21 10:44:00,
2017-09-21 05:49:00,55.6,50.8,29.93,North,360,2.2,-999.0,84,-99.99,,,0.00,,2017-09-21 10:49:00,
2017-09-21 05:55:00,55.6,50.8,29.93,NNE,22,1.1,-999.0,84,-99.99,,,0.00,,2017-09-21 10:55:00,